When you browse on this site, cookies collect data to enhance your experience and personalize the content and advertising you see.
Visit our Privacy Policy to learn more. By continuing to use the site, you agree to this use of cookies and data.
  • En España
  • Lista de países
  • Para 7 días
  • Temperatura del agua
  • Mapa Satelital
  • El tiempo en el mapa
  • Informadores
  • user-avatar
    Iniciar sesión

    Tiempo cada hora Mopti

    Hoy, 21 Abril, Domingo

    Tiempo Temperatura Precipitaciones Viento Presión Humedad
    00:00 +39°C° 0 mm 2 mps 732 mmHg 21%
    01:00 +39°C° 0.5 mm 3 mps 732 mmHg 23%
    02:00 +38°C° 0.5 mm 3 mps 732 mmHg 25%
    03:00 +37°C° 0.5 mm 3 mps 732 mmHg 27%
    04:00 +37°C° 0 mm 3 mps 732 mmHg 28%
    05:00 +37°C° 0 mm 3 mps 732 mmHg 29%
    06:00 +37°C° 0 mm 3 mps 733 mmHg 30%
    07:00 +37°C° 0.4 mm 4 mps 733 mmHg 31%
    08:00 +37°C° 0.4 mm 5 mps 733 mmHg 33%
    09:00 +38°C° 0.4 mm 6 mps 734 mmHg 34%
    10:00 +39°C° 0 mm 6 mps 734 mmHg 31%
    11:00 +41°C° 0 mm 5 mps 734 mmHg 27%
    12:00 +42°C° 0 mm 5 mps 733 mmHg 24%
    13:00 +42°C° 0.6 mm 4 mps 733 mmHg 24%
    14:00 +42°C° 0.6 mm 3 mps 732 mmHg 24%
    15:00 +40°C° 0.6 mm 2 mps 731 mmHg 24%
    16:00 +41°C° 0 mm 2 mps 731 mmHg 23%
    17:00 +42°C° 0 mm 3 mps 731 mmHg 22%
    18:00 +42°C° 0 mm 3 mps 731 mmHg 22%
    19:00 +40°C° 0.4 mm 3 mps 732 mmHg 24%
    20:00 +39°C° 0.4 mm 3 mps 732 mmHg 27%
    21:00 +38°C° 0.4 mm 2 mps 733 mmHg 30%
    22:00 +37°C° 0.3 mm 2 mps 733 mmHg 31%
    23:00 +37°C° 0.3 mm 2 mps 732 mmHg 31%

    Mañana, 22 Abril, Lunes

    Tiempo Temperatura Precipitaciones Viento Presión Humedad
    00:00 +37°C° 0.3 mm 2 mps 732 mmHg 32%
    01:00 +36°C° 0 mm 2 mps 732 mmHg 35%
    02:00 +36°C° 0 mm 3 mps 731 mmHg 37%
    03:00 +35°C° 0 mm 4 mps 731 mmHg 40%
    04:00 +35°C° 0 mm 4 mps 731 mmHg 42%
    05:00 +34°C° 0 mm 4 mps 731 mmHg 43%
    06:00 +34°C° 0 mm 4 mps 731 mmHg 45%
    07:00 +35°C° 0 mm 4 mps 732 mmHg 41%
    08:00 +37°C° 0 mm 4 mps 732 mmHg 37%
    09:00 +39°C° 0 mm 5 mps 733 mmHg 32%
    10:00 +40°C° 0 mm 4 mps 733 mmHg 30%
    11:00 +42°C° 0 mm 4 mps 733 mmHg 27%
    12:00 +43°C° 0 mm 4 mps 732 mmHg 25%
    13:00 +43°C° 0 mm 3 mps 732 mmHg 23%
    14:00 +43°C° 0 mm 3 mps 731 mmHg 22%
    15:00 +42°C° 0 mm 2 mps 730 mmHg 20%
    16:00 +42°C° 0 mm 2 mps 730 mmHg 20%
    17:00 +42°C° 0 mm 2 mps 729 mmHg 20%
    18:00 +42°C° 0 mm 2 mps 729 mmHg 20%
    19:00 +41°C° 0 mm 2 mps 730 mmHg 22%
    20:00 +42°C° 0 mm 3 mps 730 mmHg 24%
    21:00 +40°C° 0 mm 3 mps 731 mmHg 26%
    22:00 +39°C° 0 mm 3 mps 731 mmHg 29%
    23:00 +38°C° 0 mm 3 mps 731 mmHg 32%

    Pasado mañana, 23 Abril, Martes

    Tiempo Temperatura Precipitaciones Viento Presión Humedad
    00:00 +37°C° 0 mm 3 mps 731 mmHg 34%
    01:00 +37°C° 0 mm 2 mps 730 mmHg 35%
    02:00 +36°C° 0 mm 2 mps 730 mmHg 36%
    03:00 +35°C° 0 mm 1 mps 730 mmHg 38%
    04:00 +35°C° 0 mm 2 mps 730 mmHg 39%
    05:00 +35°C° 0 mm 3 mps 731 mmHg 41%
    06:00 +34°C° 0 mm 3 mps 731 mmHg 42%
    07:00 +36°C° 0 mm 4 mps 731 mmHg 39%
    08:00 +37°C° 0 mm 4 mps 732 mmHg 35%
    09:00 +39°C° 0 mm 5 mps 733 mmHg 32%
    10:00 +40°C° 0 mm 4 mps 733 mmHg 27%
    11:00 +41°C° 0 mm 2 mps 732 mmHg 23%
    12:00 +42°C° 0 mm 1 mps 732 mmHg 18%
    13:00 +43°C° 0 mm 1 mps 731 mmHg 16%
    14:00 +43°C° 0 mm 2 mps 731 mmHg 15%
    15:00 +45°C° 0 mm 3 mps 730 mmHg 13%
    16:00 +45°C° 0 mm 3 mps 730 mmHg 12%
    17:00 +45°C° 0 mm 4 mps 730 mmHg 12%
    18:00 +45°C° 0 mm 4 mps 730 mmHg 11%
    19:00 +44°C° 0 mm 4 mps 730 mmHg 11%
    20:00 +43°C° 0 mm 4 mps 731 mmHg 11%
    21:00 +42°C° 0 mm 4 mps 731 mmHg 11%
    22:00 +41°C° 0 mm 4 mps 731 mmHg 12%
    23:00 +39°C° 0 mm 3 mps 731 mmHg 12%

    24 Abril, Miércoles

    Tiempo Temperatura Precipitaciones Viento Presión Humedad
    00:00 +38°C° 0 mm 3 mps 731 mmHg 13%
    01:00 +38°C° 0 mm 3 mps 731 mmHg 13%
    02:00 +37°C° 0 mm 3 mps 731 mmHg 14%
    03:00 +36°C° 0 mm 4 mps 730 mmHg 15%
    04:00 +35°C° 0 mm 4 mps 731 mmHg 15%
    05:00 +34°C° 0 mm 4 mps 731 mmHg 16%
    06:00 +34°C° 0 mm 3 mps 732 mmHg 16%
    07:00 +35°C° 0 mm 5 mps 732 mmHg 14%
    08:00 +38°C° 0 mm 6 mps 733 mmHg 12%
    09:00 +39°C° 0 mm 7 mps 734 mmHg 10%
    10:00 +41°C° 0 mm 6 mps 734 mmHg 10%
    11:00 +42°C° 0 mm 5 mps 734 mmHg 9%
    12:00 +45°C° 0 mm 5 mps 734 mmHg 9%
    13:00 +44°C° 0 mm 4 mps 733 mmHg 8%
    14:00 +45°C° 0 mm 3 mps 732 mmHg 8%
    15:00 +45°C° 0 mm 3 mps 731 mmHg 8%
    16:00 +45°C° 0 mm 3 mps 731 mmHg 8%
    17:00 +45°C° 0 mm 3 mps 731 mmHg 9%
    18:00 +45°C° 0 mm 3 mps 731 mmHg 9%
    19:00 +43°C° 0 mm 3 mps 732 mmHg 9%
    20:00 +42°C° 0 mm 3 mps 732 mmHg 10%
    21:00 +40°C° 0 mm 3 mps 733 mmHg 11%
    22:00 +40°C° 0 mm 4 mps 733 mmHg 11%
    23:00 +40°C° 0 mm 4 mps 733 mmHg 11%

    25 Abril, Jueves

    Tiempo Temperatura Precipitaciones Viento Presión Humedad
    00:00 +38°C° 0 mm 4 mps 733 mmHg 12%
    01:00 +37°C° 0 mm 4 mps 732 mmHg 12%
    02:00 +37°C° 0 mm 4 mps 732 mmHg 12%
    03:00 +36°C° 0 mm 4 mps 732 mmHg 13%
    04:00 +35°C° 0 mm 4 mps 732 mmHg 13%
    05:00 +35°C° 0 mm 5 mps 733 mmHg 13%
    06:00 +34°C° 0 mm 5 mps 733 mmHg 13%
    07:00 +36°C° 0 mm 6 mps 734 mmHg 12%
    08:00 +39°C° 0 mm 7 mps 735 mmHg 11%
    09:00 +40°C° 0 mm 8 mps 735 mmHg 10%
    10:00 +43°C° 0 mm 8 mps 735 mmHg 13%
    11:00 +44°C° 0 mm 7 mps 735 mmHg 17%
    12:00 +45°C° 0 mm 7 mps 735 mmHg 20%
    13:00 +46°C° 0 mm 6 mps 734 mmHg 20%
    14:00 +46°C° 0 mm 5 mps 733 mmHg 20%
    15:00 +45°C° 0 mm 4 mps 732 mmHg 20%
    16:00 +45°C° 0 mm 4 mps 732 mmHg 20%
    17:00 +44°C° 0 mm 3 mps 732 mmHg 21%
    18:00 +43°C° 0 mm 2 mps 732 mmHg 21%
    19:00 +42°C° 0 mm 2 mps 732 mmHg 22%
    20:00 +43°C° 0 mm 3 mps 733 mmHg 23%
    21:00 +42°C° 0 mm 3 mps 733 mmHg 24%
    22:00 +40°C° 0.1 mm 3 mps 733 mmHg 25%
    23:00 +40°C° 0.1 mm 3 mps 733 mmHg 26%

    26 Abril, Viernes

    Tiempo Temperatura Precipitaciones Viento Presión Humedad
    00:00 +39°C° 0.1 mm 2 mps 733 mmHg 26%
    01:00 +38°C° 0.5 mm 3 mps 733 mmHg 29%
    02:00 +38°C° 0.5 mm 4 mps 733 mmHg 32%
    03:00 +37°C° 0.5 mm 4 mps 733 mmHg 35%
    04:00 +37°C° 0 mm 4 mps 733 mmHg 33%
    05:00 +36°C° 0 mm 4 mps 733 mmHg 32%
    06:00 +36°C° 0 mm 4 mps 734 mmHg 31%
    07:00 +37°C° 0 mm 4 mps 734 mmHg 24%
    08:00 +40°C° 0 mm 5 mps 734 mmHg 17%
    09:00 +41°C° 0 mm 6 mps 735 mmHg 9%
    10:00 +42°C° 0 mm 6 mps 734 mmHg 9%
    11:00 +44°C° 0 mm 6 mps 734 mmHg 9%
    12:00 +46°C° 0 mm 6 mps 734 mmHg 8%
    13:00 +46°C° 0 mm 5 mps 733 mmHg 9%
    14:00 +47°C° 0 mm 5 mps 732 mmHg 9%
    15:00 +48°C° 0 mm 4 mps 731 mmHg 9%
    16:00 +46°C° 0 mm 3 mps 731 mmHg 9%
    17:00 +46°C° 0 mm 3 mps 731 mmHg 10%
    18:00 +46°C° 0 mm 2 mps 731 mmHg 10%
    19:00 +45°C° 0 mm 2 mps 731 mmHg 11%
    20:00 +43°C° 0 mm 2 mps 731 mmHg 12%
    21:00 +42°C° 0 mm 2 mps 732 mmHg 14%
    22:00 +41°C° 0 mm 1 mps 732 mmHg 14%
    23:00 +40°C° 0 mm 1 mps 732 mmHg 15%
    Mostrar más